Location: Madrid
(40.4167°N, 3.7036°W)
Time: 14:41:46
(UTC+00:00)

ISS - Pass Details

Date: 13 July 2024
Orbit: 410 x 424 km, 51.6° (Epoch: 14 July)

Event Time Altitude Azimuth Distance (km) Brightness Sun altitude
Rises 23:24:28 0° 308° (NW) 2,342 0.8 -26.6°
Reaches altitude 10° 23:27:31 10° 339° (NNW) 1,481 0.0 -26.7°
Maximum altitude 23:29:05 13° 7° (N) 1,329 -0.4 -26.8°
Drops below altitude 10° 23:30:38 10° 35° (NE) 1,482 -0.5 -26.9°
Enters shadow 23:32:01 - 53° (NE) 1,813 -0.2 -26.9°
